Regional Weather Roundup
Issued by NWS

Home | Current Version | Previous Version | Graphics & Text | Print | Product List | Glossary On
Versions: 1 2 3 4 5 6 7 8 9 10 11 12 13 14 15 16 17 18 19 20 21 22 23 24 25 26 27 28 29 30 31 32 33 34 35 36 37 38 39 40 41 42 43 44 45 46 47 48 49 50
000
ASUS43 KIND 271509
RWRIN

WEATHER ROUNDUP FOR INDIANA
NATIONAL WEATHER SERVICE INDIANAPOLIS IN
1000 AM EST FRI FEB 27 2015

NOTE: "FAIR" INDICATES FEW OR NO CLOUDS BELOW 12,000 FEET WITH NO
SIGNIFICANT WEATHER AND/OR OBSTRUCTIONS TO VISIBILITY.

* - STATION DOES NOT REPORT WEATHER SUCH AS PRECIPITATION OR FOG.

+ - STATION NOT QUALITY CONTROLLED BY THE NATIONAL WEATHER SERVICE.
    USE DATA WITH CAUTION...ESPECIALLY DEWPOINT AND RELATIVE
    HUMIDITY OBSERVATIONS.

INZ001>003-010>013-019-020-271600-
NORTHWEST INDIANA

CITY           SKY/WX    TMP DP  RH WIND       PRES   REMARKS
GARY /AIRPORT/ SUNNY     10  -6  48 W7        30.59R WCI   0
KNOX *+          N/A      3  -9  55 CALM      30.57R
LA PORTE +     SUNNY      7   3  86 CALM      30.56R
MICHIGAN CITY+ CLOUDY     9   1  72 SW3       30.57R
MONTICELLO +   SUNNY     -1  -7  76 SW3       30.58R
RENSSELAER +   SUNNY      3   0  85 W6        30.59R WCI  -8
VALPARAISO     SUNNY      9  -2  61 W6        30.56R WCI  -1

$$

LMZ046-743>745-271600-
SOUTHERN LAKE MICHIGAN

STATION/POSITION TIME  TEMP WIND        PRES
                       AIR  DIR/SP/G
                 (UTC) (F)  (DEG/KT/KT) (MB)
MICHIGAN CITY    1500    8  200/  9/ 11   N/A

$$

INZ004-005-014>016-021>024-271600-
NORTH CENTRAL INDIANA

CITY           SKY/WX    TMP DP  RH WIND       PRES   REMARKS
ELKHART        SUNNY      5  -6  61 CALM      30.55R
GOSHEN         SUNNY      0   0 100 CALM      30.54R
LOGANSPORT +   SUNNY      1   0  92 SW5       30.58R WCI  -8
PERU/GRISSOM   SUNNY      3  -3  74 W6        30.55R WCI  -8
ROCHESTER +    SUNNY     10   3  72 CALM      30.56R
SOUTH BEND     PTSUNNY    9  -3  58 SW3       30.56R
WARSAW +       MOSUNNY    9  -4  56 CALM      30.54R

$$

INZ006>009-017-018-025>027-271600-
NORTHEAST INDIANA

CITY           SKY/WX    TMP DP  RH WIND       PRES   REMARKS
ANGOLA *+      SUNNY      5  -9  51 NW3       30.52R
AUBURN +       SUNNY      7  -4  61 CALM      30.54R
FORT WAYNE     MOSUNNY    6   0  76 SW3       30.55R
HUNTINGTON +   SUNNY     10  -1  59 CALM      30.54S

$$

INZ028-029-035-036-043>045-051>053-271600-
WEST CENTRAL INDIANA

CITY           SKY/WX    TMP DP  RH WIND       PRES   REMARKS
CRAWFORDSVL +  SUNNY      4  -8  55 W5        30.58R WCI  -5
GREENCASTLE +  SUNNY     10  -6  48 NW3       30.58R
LAFAYETTE      SUNNY      3  -4  72 W6        30.60R WCI  -8
TERRE HAUTE    MOSUNNY    9  -2  61 N6        30.62R WCI  -1

$$

INZ030>032-037>040-046>048-054>057-064-065-271600-
CENTRAL INDIANA

CITY           SKY/WX    TMP DP  RH WIND       PRES   REMARKS
ANDERSON       SUNNY      9   3  78 NW6       30.55R WCI  -1
CP ATTERBURY + SUNNY     12   5  73 N7        30.59R WCI   2
COLUMBUS       SUNNY      3   0  85 CALM      30.60R
FRANKFORT +    SUNNY      6  -1  71 SW6       30.58  WCI  -4
GREENWOOD *+   SUNNY      9   3  78 W5        30.57R WCI   0
INDIANAPOLIS   MOSUNNY   10   0  63 W6        30.56R WCI   0
-EAGLE CREEK   SUNNY      9  -2  61 NW8       30.56R WCI  -3
KOKOMO *+      SUNNY      7  -2  66 W7        30.56R WCI  -5
MARION +       SUNNY      6   1  77 W3        30.55S
MT COMFORT *+  SUNNY     10   0  61 CALM      30.56R
SHELBYVILLE    SUNNY      7   4  87 CALM      30.56R
ZIONSVILLE +   SUNNY      8   0  69 W7        30.56R WCI  -3

$$

INZ033-034-041-042-049-050-058-059-271600-
EAST CENTRAL INDIANA

CITY           SKY/WX    TMP DP  RH WIND       PRES   REMARKS
MUNCIE         SUNNY      6   3  87 NW3       30.54R

$$

INZ060-061-067>069-081>083-085>088-271600-
SOUTHWEST INDIANA

CITY           SKY/WX    TMP DP  RH WIND       PRES   REMARKS
EVANSVILLE     SUNNY     17   6  62 N7        30.65R WCI   8
HUNTINGBURG *+ SUNNY     14   5  67 N8        30.63R WCI   3
WASHINGTON +   SUNNY     10   0  64 NW6       30.63R WCI   0

$$

INZ062-063-066-070>080-084-089>092-271600-
SOUTH CENTRAL AND SOUTHEAST INDIANA

CITY           SKY/WX    TMP DP  RH WIND       PRES   REMARKS
BLOOMINGTON    SUNNY     11   1  64 N5        30.58R WCI   3
NORTH VERNON + SUNNY      9   1  72 CALM      30.58R
SEYMOUR +      SUNNY     10   0  61 CALM      30.60R

$$



USA.gov is the U.S. government's official web portal to all federal, state and local government web resources and services.